Date String (YYYY-MM-DD hh:mm:ss) UTC,Instrument flags,Ambient pressure (hPa),Sample flow (lpm),Bypass flow (lpm),Sample temperature (°C),Ambient temperature (°C),ASC tube jacket temperature (°C),LED temperature (°C),Box temperature (°C),Sample RH (%),Span deviation,Mass concentration (μg/m³),Mass concentration (μg/m³),Mass concentration (μg/m³)
DateTimeUTC,F1_M11,P_M11,Q1_M11,Q2_M11,T1_M11,T2_M11,T3_M11,T4_M11,T5_M11,U1_M11,ZSPAN_M11,X0_M11,X2_M11,X1_M11
2021-10-03 07:00:00,,0832.1,5.01,0.00,30.2,29.2,00.0,39.4,31.9,15.7,0002.6,0009.98,0005.16,0004.47
2021-10-03 07:01:00,,0832.1,5.00,0.00,30.2,29.1,00.0,39.4,31.9,15.7,0002.6,0009.51,0005.14,0004.47
2021-10-03 07:02:00,,0832.1,5.00,0.00,30.2,29.1,00.0,39.4,31.9,15.7,0002.6,0009.93,0005.17,0004.48
2021-10-03 07:03:00,,0832.1,5.00,0.00,30.2,29.1,00.0,39.4,31.9,15.7,0002.6,0010.57,0005.19,0004.48
2021-10-03 07:04:00,,0832.1,5.01,0.00,30.2,29.1,00.0,39.4,31.9,15.7,0002.2,0010.83,0005.18,0004.48
2021-10-03 07:05:00,,0832.1,4.99,0.00,30.2,29.1,00.0,39.4,31.8,15.7,0001.9,0011.17,0005.16,0004.47
2021-10-03 07:06:00,,0832.1,4.99,0.00,30.2,29.1,00.0,39.3,31.8,15.7,0002.1,0011.22,0005.12,0004.46
2021-10-03 07:07:00,,0832.1,5.01,0.00,30.2,29.0,00.0,39.3,31.8,15.7,0001.9,0011.49,0005.09,0004.46
2021-10-03 07:08:00,,0832.1,5.00,0.00,30.2,29.0,00.0,39.3,31.8,15.7,0001.7,0012.36,0005.13,0004.45
2021-10-03 07:09:00,,0832.1,5.01,0.00,30.2,29.1,00.0,39.3,31.9,15.7,0001.5,0012.47,0005.13,0004.45
2021-10-03 07:10:00,,0832.1,5.01,0.00,30.2,29.1,00.0,39.3,31.9,15.7,0001.3,0012.80,0005.20,0004.46
2021-10-03 07:11:00,,0832.1,5.00,0.00,30.2,29.1,00.0,39.3,31.9,15.6,0001.4,0012.78,0005.19,0004.47
2021-10-03 07:12:00,,0832.1,4.99,0.00,30.1,29.1,00.0,39.3,31.9,15.6,0001.3,0012.79,0005.19,0004.47
2021-10-03 07:13:00,,0832.1,5.01,0.00,30.1,29.1,00.0,39.3,31.9,15.6,0001.6,0013.29,0005.18,0004.48
2021-10-03 07:14:00,,0832.1,5.00,0.00,30.2,29.1,00.0,39.3,31.9,15.6,0001.8,0012.83,0005.16,0004.49
2021-10-03 07:15:00,,0832.1,4.99,0.00,30.2,29.1,00.0,39.3,31.9,15.6,0002.0,0013.76,0005.18,0004.50
2021-10-03 07:16:00,,0832.0,5.01,0.00,30.1,29.1,00.0,39.3,31.8,15.6,0002.3,0013.26,0005.20,0004.51
2021-10-03 07:17:00,,0832.0,5.01,0.00,30.1,29.1,00.0,39.3,31.8,15.6,0002.2,0013.54,0005.20,0004.50
2021-10-03 07:18:00,,0832.1,4.99,0.00,30.1,29.1,00.0,39.3,31.8,15.6,0002.2,0013.27,0005.23,0004.51
2021-10-03 07:19:00,,0832.0,4.99,0.00,30.1,29.1,00.0,39.3,31.8,15.5,0002.1,0012.66,0005.24,0004.53
2021-10-03 07:20:00,,0832.1,5.01,0.00,30.1,29.1,00.0,39.3,31.7,15.6,0002.0,0012.92,0005.23,0004.53
2021-10-03 07:21:00,,0832.1,5.00,0.00,30.1,29.1,00.0,39.3,31.8,15.5,0002.6,0012.48,0005.19,0004.53
2021-10-03 07:22:00,,0832.1,5.00,0.00,30.1,29.0,00.0,39.3,31.8,15.5,0002.7,0012.24,0005.16,0004.53
2021-10-03 07:23:00,,0832.1,4.98,0.00,30.1,29.0,00.0,39.3,31.7,15.6,0002.4,0012.43,0005.16,0004.53
2021-10-03 07:24:00,,0832.1,5.01,0.00,30.1,29.0,00.0,39.3,31.7,15.5,0002.5,0012.20,0005.15,0004.53
2021-10-03 07:25:00,,0832.1,4.99,0.00,30.1,29.0,00.0,39.3,31.7,15.4,0002.6,0011.98,0005.14,0004.52
2021-10-03 07:26:00,,0832.1,5.01,0.00,30.1,29.0,00.0,39.3,31.8,15.4,0002.5,0010.99,0005.12,0004.51
2021-10-03 07:27:00,,0832.1,4.99,0.00,30.1,29.0,00.0,39.3,31.8,15.4,0002.5,0010.93,0005.11,0004.50
2021-10-03 07:28:00,,0832.1,4.99,0.00,30.1,29.0,00.0,39.3,31.8,15.4,0002.4,0010.60,0005.14,0004.51
2021-10-03 07:29:00,,0832.1,5.01,0.00,30.1,29.0,00.0,39.3,31.7,15.4,0002.3,0010.48,0005.12,0004.50
2021-10-03 07:30:00,,0832.1,5.01,0.00,30.1,29.0,00.0,39.3,31.8,15.4,0002.3,0010.33,0005.13,0004.50
2021-10-03 07:31:00,,0832.1,5.00,0.00,30.1,29.0,00.0,39.3,31.8,15.4,0002.2,0009.84,0005.12,0004.49
2021-10-03 07:32:00,,0832.1,5.01,0.00,30.1,29.0,00.0,39.3,31.8,15.4,0002.1,0009.68,0005.12,0004.50
2021-10-03 07:33:00,,0832.1,5.01,0.00,30.1,29.0,00.0,39.3,31.8,15.4,0001.8,0009.75,0005.10,0004.49
2021-10-03 07:34:00,,0832.1,4.99,0.00,30.1,29.0,00.0,39.3,31.7,15.4,0001.7,0009.61,0005.10,0004.49
2021-10-03 07:35:00,,0832.1,5.02,0.00,30.1,29.0,00.0,39.3,31.7,15.4,0001.5,0009.41,0005.11,0004.47
2021-10-03 07:36:00,,0832.1,5.00,0.00,30.1,29.0,00.0,39.3,31.7,15.4,0001.4,0009.14,0005.16,0004.48
2021-10-03 07:37:00,,0832.1,4.99,0.00,30.1,29.0,00.0,39.3,31.8,15.4,0001.0,0009.36,0005.17,0004.47
2021-10-03 07:38:00,,0832.1,5.00,0.00,30.1,29.0,00.0,39.3,31.7,15.4,0000.3,0009.33,0005.16,0004.47
2021-10-03 07:39:00,,0832.1,5.00,0.00,30.1,29.0,00.0,39.3,31.7,15.4,0000.5,0009.18,0005.12,0004.47
2021-10-03 07:40:00,,0832.1,5.01,0.00,30.1,29.0,00.0,39.3,31.8,15.4,0000.8,0009.21,0005.12,0004.47
2021-10-03 07:41:00,,0832.1,5.01,0.00,30.1,29.0,00.0,39.3,31.7,15.4,0000.9,0009.50,0005.07,0004.47
2021-10-03 07:42:00,,0832.1,5.00,0.00,30.0,29.0,00.0,39.2,31.7,15.4,0000.8,0009.63,0005.07,0004.48
2021-10-03 07:43:00,,0832.1,4.98,0.00,30.0,29.0,00.0,39.2,31.7,15.4,0001.0,0010.59,0005.06,0004.48
2021-10-03 07:44:00,,0832.1,5.00,0.00,30.0,29.0,00.0,39.2,31.8,15.3,0001.6,0011.31,0005.11,0004.49
2021-10-03 07:45:00,,0832.1,5.00,0.00,30.0,29.0,00.0,39.2,31.8,15.3,0002.4,0011.59,0005.13,0004.51
2021-10-03 07:46:00,,0832.1,5.00,0.00,30.0,29.0,00.0,39.2,31.7,15.3,0001.9,0011.74,0005.16,0004.53
2021-10-03 07:47:00,,0832.1,5.00,0.00,30.0,29.0,00.0,39.2,31.7,15.3,0001.4,0011.60,0005.15,0004.53
2021-10-03 07:48:00,,0832.1,5.00,0.00,30.0,29.0,00.0,39.2,31.7,15.3,0001.4,0011.46,0005.18,0004.55
2021-10-03 07:49:00,,0832.1,5.01,0.00,30.0,29.0,00.0,39.2,31.7,15.3,0001.9,0011.59,0005.20,0004.55
2021-10-03 07:50:00,,0832.1,5.00,0.00,30.0,29.0,00.0,39.2,31.7,15.3,0001.8,0012.15,0005.19,0004.56
2021-10-03 07:51:00,,0832.1,4.99,0.00,30.0,29.0,00.0,39.2,31.7,15.3,0001.8,0012.50,0005.18,0004.57
2021-10-03 07:52:00,,0832.1,5.01,0.00,30.0,29.0,00.0,39.2,31.7,15.3,0001.9,0012.19,0005.24,0004.59
2021-10-03 07:53:00,,0832.1,4.98,0.00,30.0,29.0,00.0,39.2,31.7,15.4,0002.2,0012.17,0005.29,0004.60
2021-10-03 07:54:00,,0832.1,5.01,0.00,30.0,29.0,00.0,39.2,31.7,15.3,0002.1,0011.63,0005.30,0004.61
2021-10-03 07:55:00,,0832.1,5.00,0.00,30.0,29.0,00.0,39.2,31.7,15.4,0001.9,0011.51,0005.29,0004.60
2021-10-03 07:56:00,,0832.1,5.00,0.00,30.0,28.9,00.0,39.2,31.7,15.4,0001.8,0011.47,0005.28,0004.60
2021-10-03 07:57:00,,0832.0,5.00,0.00,30.0,29.0,00.0,39.2,31.7,15.4,0002.0,0011.28,0005.25,0004.60
2021-10-03 07:58:00,,0832.1,5.01,0.00,30.0,28.9,00.0,39.2,31.7,15.4,0002.0,0011.29,0005.25,0004.60
2021-10-03 07:59:00,,0832.1,5.01,0.00,30.0,28.9,00.0,39.2,31.7,15.4,0002.3,0011.27,0005.21,0004.59
